[[{"header":{"parameterUnit":"m.s-1","parameterCategory":1,"la1":30.2991,"la2":30.254,"lo1":-89.0895,"lo2":-89.0444,"dy":0.0017,"dx":0.0017,"nx":28,"ny":28,"refTime":"2023-08-17T09:00:00:Z","depth":0,"parameterNumber":2,"parameterNumberName":"U-component_of_WINDS"},"data":[0,0,0,0,0,0,0,0,0,0,0,0,0,0,0,0,0,0,0,0,0,0,0,0,0,0,0,0,0,0,0,0,0,0,0,0,0,0,0,0,0,0,0,0,0,0,0,0,0,0,0,0,0,0,0,0,0,0,-1.8921,-1.8921,0,-1.8871,-1.8871,-1.887,-1.8836,-1.8836,-1.8835,-1.8835,-1.878,-1.8779,-1.8778,0,0,0,0,0,0,0,0,0,0,0,0,0,-1.8985,-1.8984,-1.8921,-1.8921,-1.892,-1.8871,-1.8871,-1.887,-1.8836,-1.8836,-1.8835,-1.8835,-1.8781,-1.8779,-1.8778,0,0,0,0,0,0,0,0,0,0,0,0,0,-1.8948,-1.8983,-1.8922,-1.8897,-1.8895,-1.8871,-1.8871,-1.887,-1.8836,-1.8835,-1.8835,-1.8835,-1.8781,-1.878,-1.8778,-1.8774,0,0,-1.8772,-1.8771,0,0,0,0,0,0,0,0,-1.895,-1.8946,-1.8902,-1.8899,-1.8896,-1.8859,-1.8873,-1.8837,-1.8836,-1.8858,-1.8835,-1.8835,-1.8807,-1.8803,-1.8794,-1.8771,-1.8769,-1.8772,-1.8771,-1.877,-1.8769,0,0,0,0,0,0,0,-1.8953,-1.8948,-1.8901,-1.8901,-1.8897,-1.8888,-1.8882,-1.8866,-1.8835,-1.8856,-1.8854,-1.8848,-1.8805,-1.8796,-1.8793,-1.8768,-1.8772,-1.877,-1.8769,-1.8768,-1.8738,-1.8738,0,0,0,0,0,0,-1.896,-1.895,-1.8903,-1.89,-1.8923,-1.8887,-1.8881,-1.8871,-1.8835,-1.8829,-1.8849,-1.8847,-1.8799,-1.8795,-1.8791,-1.8782,-1.877,-1.8768,-1.8767,-1.8738,-1.8738,-1.8738,0,0,0,0,0,0,-1.8961,-1.8956,-1.8905,-1.8924,-1.8917,-1.8886,-1.8876,-1.8871,-1.8861,-1.8829,-1.8823,-1.8845,-1.8799,-1.8793,-1.8778,-1.878,-1.8767,-1.8766,-1.8737,-1.8738,-1.8738,-1.8767,0,0,0,0,0,0,-1.8963,-1.8956,-1.8955,-1.8925,-1.8916,-1.8894,-1.8876,-1.887,-1.8859,-1.8856,-1.8825,-1.8819,-1.8798,-1.8781,-1.8776,-1.8777,-1.8764,-1.8737,-1.8738,-1.8738,-1.8766,-1.8768,-1.8771,0,0,0,0,0,-1.8965,-1.8965,-1.8955,-1.895,-1.8914,-1.8895,-1.889,-1.8867,-1.8859,-1.8857,-1.8837,-1.882,-1.8781,-1.878,-1.8774,-1.8775,-1.8737,-1.8737,-1.8738,-1.8765,-1.8768,-1.8771,0,0,0,0,0,0,-1.8995,-1.896,-1.8949,-1.8939,-1.892,-1.8889,-1.8886,-1.8871,-1.8853,-1.8851,-1.8822,-1.8816,-1.8803,-1.8788,-1.8787,-1.8768,-1.8757,-1.8756,-1.8779,-1.8782,-1.8784,-1.8788,-1.8763,0,0,0,0,0,-1.9001,-1.8989,-1.8959,-1.8952,-1.8944,-1.8917,-1.8907,-1.8891,-1.887,-1.8861,-1.884,-1.8819,-1.8802,-1.8791,-1.8774,-1.8764,-1.8756,-1.8761,-1.8764,-1.8766,-1.8766,-1.8758,-1.876,-1.8741,-1.8741,-1.8741,0,0,-1.9012,-1.8991,-1.8985,-1.8958,-1.8941,-1.8928,-1.891,-1.8897,-1.8887,-1.8859,-1.8844,-1.8827,-1.8802,-1.8789,-1.8783,-1.8776,-1.877,-1.8767,-1.8769,-1.8767,-1.8759,-1.8761,-1.8763,-1.8741,-1.8741,-1.8741,0,0,-1.9025,-1.9009,-1.9002,-1.8986,-1.8961,-1.8943,-1.8942,-1.8913,-1.8901,-1.8886,-1.8864,-1.8851,-1.8823,-1.8806,-1.8793,-1.8801,-1.8784,-1.8796,-1.8808,-1.8801,-1.8803,-1.8804,-1.8806,-1.8807,-1.8796,-1.8796,-1.8796,0,-1.9041,-1.9022,-1.8999,-1.8988,-1.8976,-1.8952,-1.8943,-1.8929,-1.89,-1.8892,-1.8885,-1.8849,-1.883,-1.8813,-1.8815,-1.8806,-1.8802,-1.8798,-1.8805,-1.8806,-1.8806,-1.8807,-1.8808,-1.8797,-1.8797,-1.8797,-1.8797,0,-1.9043,-1.903,-1.9027,-1.9,-1.8988,-1.8978,-1.8953,-1.8944,-1.8929,-1.8912,-1.8896,-1.8873,-1.885,-1.8845,-1.883,-1.8825,-1.8822,-1.881,-1.8798,-1.881,-1.8811,-1.8811,-1.8799,-1.8799,-1.8798,-1.8798,0,0,-1.9072,-1.9034,-1.9033,-1.9021,-1.8992,-1.8981,-1.897,-1.8949,-1.8941,-1.8922,-1.8911,-1.8888,-1.8877,-1.8863,-1.8846,-1.8841,-1.8847,-1.883,-1.8829,-1.8833,-1.8839,-1.8847,-1.8848,-1.8836,-1.8836,-1.8836,-1.8841,0,-1.908,-1.906,-1.9039,-1.9026,-1.9013,-1.899,-1.898,-1.8961,-1.8945,-1.8931,-1.8912,-1.8896,-1.8883,-1.8875,-1.8868,-1.8848,-1.8847,-1.8847,-1.8825,-1.8824,-1.883,-1.8848,-1.8856,-1.8861,-1.8841,-1.8841,-1.8841,0,-1.9086,-1.9069,-1.9055,-1.9028,-1.9021,-1.9013,-1.8992,-1.8979,-1.8957,-1.8946,-1.893,-1.8913,-1.8899,-1.8889,-1.8869,-1.8869,-1.8859,-1.8847,-1.8847,-1.8843,-1.8832,-1.8843,-1.8862,-1.8863,-1.8841,-1.8841,-1.8841,0,-1.9108,-1.9081,-1.9069,-1.9059,-1.9028,-1.9022,-1.9008,-1.8986,-1.8975,-1.8956,-1.8948,-1.8928,-1.8917,-1.8901,-1.8878,-1.8873,-1.886,-1.8848,-1.8848,-1.8849,-1.8845,-1.8846,-1.8862,-1.8841,-1.8841,-1.8841,-1.8841,0,-1.9118,-1.9109,-1.9078,-1.907,-1.906,-1.9037,-1.9027,-1.9011,-1.8992,-1.898,-1.8959,-1.8948,-1.8919,-1.8904,-1.8886,-1.8871,-1.8867,-1.8856,-1.8851,-1.8857,-1.8858,-1.8849,-1.8847,-1.8841,-1.8841,-1.8841,-1.8841,0,-1.9139,-1.9118,-1.9103,-1.9075,-1.9068,-1.9061,-1.9036,-1.9028,-1.9011,-1.8996,-1.8991,-1.8963,-1.8945,-1.8921,-1.8895,-1.8883,-1.887,-1.8863,-1.8878,-1.8874,-1.8876,-1.8875,-1.8885,-1.8885,-1.8866,-1.8866,-1.8866,0,-1.9146,-1.914,-1.9111,-1.9102,-1.909,-1.9075,-1.9064,-1.9041,-1.9029,-1.9004,-1.8998,-1.8978,-1.8961,-1.8933,-1.891,-1.8889,-1.8881,-1.8886,-1.8878,-1.8884,-1.888,-1.888,-1.8878,-1.8887,-1.8888,-1.8888,-1.8888,0,-1.9161,-1.9151,-1.9136,-1.9117,-1.9105,-1.9089,-1.9071,-1.9065,-1.9038,-1.9026,-1.9008,-1.8995,-1.8969,-1.8949,-1.8926,-1.891,-1.8894,-1.8891,-1.889,-1.8896,-1.8904,-1.8898,-1.8882,-1.8891,-1.8891,-1.889,-1.889,-1.889,-1.9175,-1.9167,-1.9146,-1.913,-1.9115,-1.91,-1.909,-1.9072,-1.9057,-1.9034,-1.9021,-1.9003,-1.8981,-1.8948,-1.8934,-1.8918,-1.8912,-1.8911,-1.891,-1.891,-1.8911,-1.8908,-1.8914,-1.8914,-1.8914,-1.8914,-1.8914,0,-1.9187,-1.9173,-1.9158,-1.9135,-1.9123,-1.9111,-1.9091,-1.9081,-1.9065,-1.9046,-1.903,-1.9009,-1.899,-1.8966,-1.8945,-1.8937,-1.8929,-1.8932,-1.8932,-1.8929,-1.8919,-1.8921,-1.8939,-1.8939,-1.8939,-1.8939,-1.8939,-1.8939,-1.9192,-1.9179,-1.9167,-1.9146,-1.9131,-1.9114,-1.9104,-1.9089,-1.9074,-1.9051,-1.9036,-1.9021,-1.9,-1.8977,-1.8959,-1.8952,-1.8945,-1.895,-1.8941,-1.8932,-1.8929,-1.8927,-1.8929,-1.8949,-1.8949,-1.8952,-1.8952,-1.8952]},{"header":{"parameterUnit":"m.s-1","parameterCategory":1,"la1":30.2991,"la2":30.254,"lo1":-89.0895,"lo2":-89.0444,"dy":0.0017,"dx":0.0017,"nx":28,"ny":28,"refTime":"2023-08-17T09:00:00:Z","depth":0,"parameterNumber":3,"parameterNumberName":"V-component_of_WINDS"},"data":[0,0,0,0,0,0,0,0,0,0,0,0,0,0,0,0,0,0,0,0,0,0,0,0,0,0,0,0,0,0,0,0,0,0,0,0,0,0,0,0,0,0,0,0,0,0,0,0,0,0,0,0,0,0,0,0,0,0,-1.2352,-1.2353,0,-1.2449,-1.2451,-1.2452,-1.2501,-1.2501,-1.2501,-1.2501,-1.2603,-1.2606,-1.2609,0,0,0,0,0,0,0,0,0,0,0,0,0,-1.221,-1.2212,-1.2352,-1.2353,-1.2354,-1.2449,-1.2451,-1.2452,-1.2501,-1.2501,-1.2501,-1.2501,-1.2603,-1.2606,-1.2609,0,0,0,0,0,0,0,0,0,0,0,0,0,-1.2286,-1.2213,-1.2351,-1.239,-1.2394,-1.2449,-1.2451,-1.2452,-1.2501,-1.2501,-1.2501,-1.2501,-1.2601,-1.2605,-1.2609,-1.2634,0,0,-1.2622,-1.2624,0,0,0,0,0,0,0,0,-1.2281,-1.2291,-1.2383,-1.2387,-1.2392,-1.2463,-1.2438,-1.2513,-1.2501,-1.246,-1.2501,-1.2501,-1.2557,-1.2565,-1.2583,-1.2639,-1.2643,-1.2622,-1.2625,-1.2627,-1.2628,0,0,0,0,0,0,0,-1.2276,-1.2287,-1.239,-1.2384,-1.239,-1.2403,-1.2414,-1.2453,-1.2507,-1.2464,-1.2468,-1.2478,-1.2559,-1.2579,-1.2586,-1.2645,-1.2622,-1.2626,-1.2628,-1.263,-1.2726,-1.2727,0,0,0,0,0,0,-1.2264,-1.2282,-1.2387,-1.2393,-1.2336,-1.2406,-1.2418,-1.244,-1.2507,-1.2517,-1.2478,-1.248,-1.2572,-1.2581,-1.259,-1.2623,-1.2626,-1.263,-1.2633,-1.2726,-1.2727,-1.2727,0,0,0,0,0,0,-1.2261,-1.2273,-1.2383,-1.2339,-1.2354,-1.2408,-1.2433,-1.2442,-1.2462,-1.2518,-1.2528,-1.2488,-1.2572,-1.2584,-1.2623,-1.2627,-1.2632,-1.2636,-1.2726,-1.2726,-1.2727,-1.269,0,0,0,0,0,0,-1.2257,-1.2272,-1.2281,-1.2339,-1.2356,-1.2414,-1.2433,-1.2444,-1.2468,-1.2472,-1.253,-1.2539,-1.2573,-1.2616,-1.2627,-1.2633,-1.2639,-1.2726,-1.2726,-1.2727,-1.2691,-1.2689,-1.2687,0,0,0,0,0,-1.2251,-1.2267,-1.2281,-1.2294,-1.2369,-1.2414,-1.2424,-1.2462,-1.2468,-1.2479,-1.2515,-1.2538,-1.2625,-1.262,-1.2632,-1.264,-1.2726,-1.2726,-1.2726,-1.2692,-1.2689,-1.2687,0,0,0,0,0,0,-1.221,-1.2275,-1.2292,-1.2326,-1.2364,-1.2422,-1.2436,-1.2458,-1.2495,-1.2497,-1.2543,-1.2556,-1.2591,-1.2619,-1.2612,-1.2667,-1.2678,-1.268,-1.2647,-1.2645,-1.2643,-1.2636,-1.2642,0,0,0,0,0,-1.2204,-1.2235,-1.2291,-1.2316,-1.2334,-1.2382,-1.2403,-1.2429,-1.247,-1.2487,-1.2526,-1.2566,-1.2602,-1.2625,-1.2662,-1.2695,-1.2709,-1.2706,-1.2704,-1.2703,-1.2704,-1.2725,-1.2724,-1.2728,-1.2728,-1.2728,0,0,-1.2194,-1.2234,-1.225,-1.2309,-1.2341,-1.2372,-1.2395,-1.2427,-1.2451,-1.2492,-1.2531,-1.2561,-1.2608,-1.2644,-1.2662,-1.2669,-1.2706,-1.2703,-1.2701,-1.2704,-1.2725,-1.2724,-1.2724,-1.2728,-1.2728,-1.2728,0,0,-1.2191,-1.2224,-1.2248,-1.228,-1.2328,-1.236,-1.2366,-1.2421,-1.2442,-1.2481,-1.2512,-1.2542,-1.2604,-1.2637,-1.2661,-1.267,-1.2693,-1.2681,-1.2671,-1.269,-1.269,-1.269,-1.2693,-1.2694,-1.2683,-1.2683,-1.2683,0,-1.2172,-1.222,-1.2259,-1.2289,-1.2314,-1.2351,-1.2377,-1.2406,-1.2464,-1.2481,-1.2488,-1.2566,-1.2601,-1.2645,-1.2647,-1.2666,-1.2675,-1.2675,-1.2686,-1.2687,-1.2687,-1.2691,-1.2692,-1.2681,-1.2681,-1.2681,-1.2681,0,-1.2194,-1.2227,-1.2241,-1.2295,-1.2322,-1.235,-1.2394,-1.2416,-1.244,-1.2471,-1.2511,-1.2554,-1.26,-1.2612,-1.2636,-1.266,-1.2663,-1.2677,-1.2689,-1.2685,-1.2689,-1.2691,-1.2678,-1.2679,-1.268,-1.268,0,0,-1.2168,-1.2243,-1.2247,-1.2272,-1.2328,-1.2355,-1.2384,-1.2429,-1.2447,-1.2486,-1.2513,-1.2564,-1.2578,-1.2606,-1.2633,-1.265,-1.2655,-1.2663,-1.2664,-1.266,-1.2685,-1.2673,-1.2674,-1.267,-1.267,-1.2671,-1.2681,0,-1.2173,-1.2227,-1.2263,-1.2303,-1.2334,-1.237,-1.2396,-1.2433,-1.2463,-1.2494,-1.2528,-1.2564,-1.2579,-1.2596,-1.2614,-1.265,-1.266,-1.265,-1.2696,-1.2697,-1.2683,-1.2677,-1.2665,-1.2673,-1.2683,-1.2683,-1.2683,0,-1.2186,-1.2223,-1.2265,-1.2318,-1.2332,-1.2355,-1.2398,-1.2427,-1.2471,-1.2492,-1.2522,-1.2551,-1.2584,-1.2593,-1.2641,-1.2633,-1.2654,-1.2674,-1.2676,-1.2682,-1.269,-1.2683,-1.2676,-1.2677,-1.2686,-1.2686,-1.2686,0,-1.2162,-1.2223,-1.2256,-1.2277,-1.2338,-1.2354,-1.238,-1.2424,-1.2448,-1.2486,-1.2503,-1.2545,-1.2568,-1.26,-1.2639,-1.2642,-1.2683,-1.2695,-1.2702,-1.2701,-1.2709,-1.2708,-1.2706,-1.2722,-1.2722,-1.2722,-1.2722,0,-1.2164,-1.2189,-1.2246,-1.2267,-1.2296,-1.2338,-1.2366,-1.2396,-1.2434,-1.2462,-1.2496,-1.2521,-1.2571,-1.2603,-1.2634,-1.2669,-1.2679,-1.2697,-1.2705,-1.2694,-1.2692,-1.2709,-1.2709,-1.2722,-1.2722,-1.2722,-1.2722,0,-1.2143,-1.2182,-1.2221,-1.2276,-1.2291,-1.231,-1.2358,-1.238,-1.2411,-1.2446,-1.2456,-1.2506,-1.2545,-1.2587,-1.2641,-1.2662,-1.2696,-1.2707,-1.268,-1.2685,-1.269,-1.2689,-1.2698,-1.2702,-1.2715,-1.2715,-1.2715,0,-1.2141,-1.2161,-1.2218,-1.2239,-1.2264,-1.2297,-1.2322,-1.2364,-1.2388,-1.2439,-1.2455,-1.2497,-1.2532,-1.2593,-1.2635,-1.2677,-1.2689,-1.269,-1.2696,-1.2684,-1.2689,-1.2688,-1.269,-1.2688,-1.2687,-1.2687,-1.2687,0,-1.2135,-1.2153,-1.2187,-1.2227,-1.2256,-1.229,-1.2326,-1.2341,-1.239,-1.2416,-1.2456,-1.2483,-1.2538,-1.2579,-1.2625,-1.2654,-1.2679,-1.2684,-1.2688,-1.2677,-1.2661,-1.267,-1.2675,-1.2684,-1.2684,-1.2684,-1.2685,-1.2685,-1.2124,-1.2143,-1.2186,-1.2222,-1.2253,-1.2286,-1.2309,-1.2343,-1.2377,-1.2424,-1.2447,-1.2487,-1.2531,-1.2596,-1.2624,-1.2656,-1.2664,-1.2669,-1.2671,-1.2671,-1.2669,-1.2656,-1.2665,-1.2665,-1.2665,-1.2665,-1.2665,0,-1.2119,-1.2148,-1.2181,-1.2229,-1.2258,-1.2278,-1.2319,-1.2342,-1.2376,-1.2414,-1.2448,-1.2495,-1.2535,-1.2579,-1.2623,-1.264,-1.2653,-1.265,-1.2649,-1.2656,-1.2659,-1.2652,-1.2639,-1.2639,-1.2639,-1.2639,-1.2639,-1.2639,-1.212,-1.2153,-1.2177,-1.2226,-1.2256,-1.2295,-1.2316,-1.2347,-1.2377,-1.2427,-1.246,-1.2489,-1.253,-1.2576,-1.2614,-1.2626,-1.2641,-1.2635,-1.2651,-1.2653,-1.2655,-1.2657,-1.265,-1.2638,-1.2638,-1.2644,-1.2644,-1.2644]}]]